When you browse on this site, cookies collect data to enhance your experience and personalize the content and advertising you see.
Visit our Privacy Policy to learn more. By continuing to use the site, you agree to this use of cookies and data.
  • In Romania
  • List of Countries
  • For 7 days
  • Water Temperature
  • Satellite Maps
  • Weather Map
  • Weather Widgets
  • user-avatar
    Login

    Hourly Weather Kaczowice

    Today, 22 February, Friday

    Time Temperature Precipitation Wind Pressure Humidity
    00:00 +3°C° 0.4 mm 5 mps 740 mmHg 87%
    01:00 +4°C° 0 mm 4 mps 740 mmHg 88%
    02:00 +4°C° 0.6 mm 4 mps 740 mmHg 89%
    03:00 +3°C° 0.6 mm 5 mps 740 mmHg 89%
    04:00 +3°C° 0.6 mm 5 mps 740 mmHg 90%
    05:00 +2°C° 0.5 mm 6 mps 741 mmHg 87%
    06:00 -1°C° 0.5 mm 7 mps 742 mmHg 85%
    07:00 -3°C° 0 mm 7 mps 743 mmHg 80%
    08:00 -3°C° 0 mm 7 mps 745 mmHg 74%
    09:00 -4°C° 0 mm 7 mps 746 mmHg 68%
    10:00 -4°C° 0 mm 7 mps 747 mmHg 62%
    11:00 -4°C° 0 mm 7 mps 748 mmHg 56%
    12:00 -4°C° 0 mm 7 mps 749 mmHg 51%
    13:00 -4°C° 0 mm 6 mps 750 mmHg 44%
    14:00 -5°C° 0 mm 6 mps 751 mmHg 44%
    15:00 -5°C° 0 mm 6 mps 751 mmHg 44%
    16:00 -5°C° 0 mm 6 mps 751 mmHg 44%
    17:00 -6°C° 0 mm 6 mps 752 mmHg 45%
    18:00 -6°C° 0 mm 6 mps 753 mmHg 45%
    19:00 -8°C° 0 mm 6 mps 753 mmHg 46%
    20:00 -7°C° 0 mm 5 mps 754 mmHg 44%
    21:00 -7°C° 0 mm 5 mps 755 mmHg 41%
    22:00 -7°C° 0 mm 5 mps 755 mmHg 39%
    23:00 -7°C° 0 mm 5 mps 755 mmHg 39%

    Tomorrow, 23 February, Saturday

    Time Temperature Precipitation Wind Pressure Humidity
    00:00 -7°C° 0 mm 5 mps 756 mmHg 40%
    01:00 -7°C° 0 mm 4 mps 756 mmHg 40%
    02:00 -7°C° 0 mm 4 mps 756 mmHg 42%
    03:00 -7°C° 0 mm 4 mps 756 mmHg 43%
    04:00 -6°C° 0 mm 3 mps 757 mmHg 45%
    05:00 -6°C° 0 mm 3 mps 757 mmHg 47%
    06:00 -7°C° 0 mm 3 mps 757 mmHg 49%
    07:00 -7°C° 0 mm 3 mps 757 mmHg 51%
    08:00 -6°C° 0 mm 3 mps 758 mmHg 49%
    09:00 -6°C° 0 mm 3 mps 758 mmHg 47%
    10:00 -5°C° 0 mm 3 mps 758 mmHg 45%
    11:00 -4°C° 0 mm 3 mps 758 mmHg 42%
    12:00 -4°C° 0 mm 3 mps 758 mmHg 39%
    13:00 -2°C° 0 mm 2 mps 758 mmHg 36%
    14:00 -2°C° 0 mm 2 mps 757 mmHg 36%
    15:00 -2°C° 0 mm 2 mps 757 mmHg 36%
    16:00 -2°C° 0 mm 2 mps 757 mmHg 36%
    17:00 -1°C° 0 mm 1 mps 757 mmHg 40%
    18:00 -1°C° 0 mm 1 mps 757 mmHg 43%
    19:00 -2°C° 0 mm 1 mps 757 mmHg 46%
    20:00 -2°C° 0 mm 1 mps 757 mmHg 47%
    21:00 -2°C° 0 mm 1 mps 757 mmHg 47%
    22:00 -2°C° 0 mm 1 mps 757 mmHg 48%
    23:00 -2°C° 0 mm 1 mps 757 mmHg 48%

    Day after tomorrow, 24 February, Sunday

    Time Temperature Precipitation Wind Pressure Humidity
    00:00 -2°C° 0 mm 1 mps 756 mmHg 48%
    01:00 -2°C° 0 mm 1 mps 756 mmHg 49%
    02:00 -2°C° 0 mm 1 mps 756 mmHg 48%
    03:00 -2°C° 0 mm 1 mps 756 mmHg 47%
    04:00 -2°C° 0 mm 1 mps 755 mmHg 46%
    05:00 -2°C° 0 mm 1 mps 755 mmHg 44%
    06:00 -1°C° 0 mm 1 mps 755 mmHg 43%
    07:00 -1°C° 0 mm 1 mps 755 mmHg 41%
    08:00 -2°C° 0 mm 2 mps 755 mmHg 37%
    09:00 -1°C° 0 mm 2 mps 755 mmHg 34%
    10:00 +1°C° 0 mm 2 mps 755 mmHg 30%
    11:00 +1°C° 0 mm 3 mps 754 mmHg 28%
    12:00 +2°C° 0 mm 3 mps 754 mmHg 26%
    13:00 +3°C° 0 mm 3 mps 754 mmHg 25%
    14:00 +3°C° 0 mm 3 mps 753 mmHg 29%
    15:00 +2°C° 0 mm 3 mps 753 mmHg 33%
    16:00 +2°C° 0 mm 3 mps 753 mmHg 37%
    17:00 +1°C° 0 mm 3 mps 753 mmHg 40%
    18:00 0°C° 0 mm 3 mps 753 mmHg 43%
    19:00 -1°C° 0 mm 3 mps 753 mmHg 47%
    20:00 -1°C° 0 mm 3 mps 753 mmHg 48%
    21:00 -1°C° 0 mm 3 mps 753 mmHg 49%
    22:00 -1°C° 0 mm 3 mps 753 mmHg 51%
    23:00 -1°C° 0 mm 3 mps 753 mmHg 53%

    25 February, Monday

    Time Temperature Precipitation Wind Pressure Humidity
    00:00 -1°C° 0 mm 3 mps 753 mmHg 54%
    01:00 -1°C° 0 mm 3 mps 753 mmHg 56%
    02:00 -1°C° 0 mm 3 mps 753 mmHg 58%
    03:00 -2°C° 0 mm 4 mps 753 mmHg 61%
    04:00 -2°C° 0 mm 4 mps 753 mmHg 63%
    05:00 -2°C° 0 mm 4 mps 753 mmHg 65%
    06:00 -2°C° 0 mm 4 mps 753 mmHg 68%
    07:00 -3°C° 0 mm 4 mps 753 mmHg 70%
    08:00 -1°C° 0 mm 4 mps 753 mmHg 69%
    09:00 0°C° 0 mm 4 mps 753 mmHg 67%
    10:00 +1°C° 0 mm 4 mps 753 mmHg 66%
    11:00 +3°C° 0 mm 4 mps 753 mmHg 67%
    12:00 +4°C° 0 mm 4 mps 753 mmHg 67%
    13:00 +5°C° 0 mm 4 mps 753 mmHg 68%
    14:00 +5°C° 0 mm 4 mps 753 mmHg 71%
    15:00 +5°C° 0 mm 3 mps 752 mmHg 73%
    16:00 +5°C° 0 mm 3 mps 752 mmHg 76%
    17:00 +4°C° 0 mm 3 mps 752 mmHg 81%
    18:00 +2°C° 0 mm 3 mps 752 mmHg 86%
    19:00 +1°C° 0 mm 3 mps 752 mmHg 90%
    20:00 +1°C° 0 mm 3 mps 752 mmHg 91%
    21:00 +1°C° 0 mm 3 mps 752 mmHg 92%
    22:00 0°C° 0 mm 3 mps 752 mmHg 92%
    23:00 0°C° 0 mm 3 mps 752 mmHg 92%

    26 February, Tuesday

    Time Temperature Precipitation Wind Pressure Humidity
    00:00 -1°C° 0 mm 4 mps 751 mmHg 93%
    01:00 -1°C° 0 mm 4 mps 751 mmHg 93%
    02:00 -1°C° 0 mm 5 mps 751 mmHg 93%
    03:00 -1°C° 0 mm 5 mps 750 mmHg 93%
    04:00 -1°C° 0 mm 5 mps 750 mmHg 94%
    05:00 -1°C° 0 mm 5 mps 749 mmHg 93%
    06:00 -1°C° 0 mm 5 mps 749 mmHg 92%
    07:00 -1°C° 0 mm 5 mps 749 mmHg 91%
    08:00 +1°C° 0 mm 6 mps 749 mmHg 82%
    09:00 +2°C° 0 mm 6 mps 749 mmHg 74%
    10:00 +3°C° 0 mm 6 mps 748 mmHg 65%
    11:00 +4°C° 0 mm 7 mps 748 mmHg 60%
    12:00 +5°C° 0 mm 7 mps 748 mmHg 55%
    13:00 +6°C° 0 mm 7 mps 747 mmHg 50%
    14:00 +6°C° 0 mm 7 mps 747 mmHg 52%
    15:00 +6°C° 0 mm 7 mps 747 mmHg 53%
    16:00 +7°C° 0 mm 6 mps 747 mmHg 55%
    17:00 +5°C° 0 mm 6 mps 747 mmHg 59%
    18:00 +6°C° 0 mm 5 mps 747 mmHg 64%
    19:00 +5°C° 0 mm 5 mps 748 mmHg 69%
    20:00 +4°C° 0 mm 4 mps 748 mmHg 74%
    21:00 +4°C° 0 mm 4 mps 748 mmHg 78%
    22:00 +3°C° 0 mm 4 mps 748 mmHg 83%
    23:00 +1°C° 0 mm 4 mps 748 mmHg 86%

    27 February, Wednesday

    Time Temperature Precipitation Wind Pressure Humidity
    00:00 +2°C° 0 mm 3 mps 748 mmHg 89%
    01:00 +1°C° 0 mm 3 mps 748 mmHg 92%
    02:00 +1°C° 0 mm 3 mps 748 mmHg 92%
    03:00 0°C° 0 mm 3 mps 748 mmHg 92%
    04:00 0°C° 0 mm 3 mps 748 mmHg 93%
    05:00 0°C° 0 mm 3 mps 748 mmHg 92%
    06:00 0°C° 0 mm 3 mps 748 mmHg 92%
    07:00 -1°C° 0 mm 2 mps 748 mmHg 91%
    08:00 +1°C° 0 mm 3 mps 748 mmHg 84%
    09:00 +3°C° 0 mm 3 mps 748 mmHg 78%
    10:00 +4°C° 0 mm 3 mps 747 mmHg 71%
    11:00 +6°C° 0 mm 4 mps 747 mmHg 67%
    12:00 +7°C° 0 mm 4 mps 746 mmHg 64%
    13:00 +8°C° 0 mm 4 mps 746 mmHg 60%
    14:00 +8°C° 0 mm 4 mps 745 mmHg 61%
    15:00 +8°C° 0 mm 5 mps 744 mmHg 61%
    16:00 +8°C° 0 mm 5 mps 744 mmHg 61%
    17:00 +7°C° 0 mm 5 mps 743 mmHg 64%
    18:00 +6°C° 0 mm 5 mps 743 mmHg 67%
    19:00 +5°C° 0 mm 5 mps 743 mmHg 70%
    20:00 +5°C° 0 mm 5 mps 742 mmHg 71%
    21:00 +5°C° 0 mm 5 mps 742 mmHg 71%
    22:00 +5°C° 0 mm 5 mps 741 mmHg 71%
    23:00 +5°C° 0 mm 5 mps 741 mmHg 72%
    Show more